| time (UTC) | temp F | wind direction | speed knots | gust knots | rain 1hr in | rain 24hr in | rain mn in | humidity % | barometer mb |
| 20260506191550 | 55 | 195 | 1.7 | 7.8 | 0.03 | 0.06 | 0.06 | 87 | 1009.5 |
| 20260506190047 | 55 | 239 | 3.5 | 10.4 | 0.05 | 0.06 | 0.06 | 87 | 1009.9 |
| 20260506184547 | 55 | 200 | 0.0 | 7.0 | 0.06 | 0.06 | 0.06 | 87 | 1009.9 |
| 20260506183044 | 55 | 148 | 4.3 | 8.7 | 0.04 | 0.04 | 0.04 | 88 | 1010.0 |
| 20260506181542 | 56 | 204 | 2.6 | 5.2 | 0.02 | 0.02 | 0.02 | 88 | 1010.1 |
| 20260506180043 | 56 | 213 | 1.7 | 3.5 | 0.01 | 0.01 | 0.01 | 87 | 1010.4 |
| 20260506174538 | 57 | 277 | 1.7 | 7.0 | 0.00 | 0.00 | 0.00 | 87 | 1010.9 |
| 20260506173044 | 58 | 195 | 0.9 | 7.0 | 0.00 | 0.00 | 0.00 | 85 | 1010.9 |
| 20260506171540 | 59 | 162 | 1.7 | 11.3 | 0.00 | 0.00 | 0.00 | 84 | 1011.1 |
| 20260506170034 | 59 | 257 | 2.6 | 12.2 | 0.00 | 0.00 | 0.00 | 85 | 1011.2 |
| 20260506164543 | 59 | 278 | 3.5 | 11.3 | 0.00 | 0.00 | 0.00 | 84 | 1011.4 |
| 20260506163033 | 59 | 297 | 4.3 | 14.8 | 0.00 | 0.00 | 0.00 | 84 | 1011.4 |
| 20260506161533 | 60 | 204 | 2.6 | 9.6 | 0.00 | 0.00 | 0.00 | 83 | 1011.5 |
| 20260506160029 | 60 | 212 | 0.9 | 11.3 | 0.00 | 0.00 | 0.00 | 83 | 1011.9 |
| 20260506154527 | 61 | 222 | 5.2 | 14.8 | 0.00 | 0.00 | 0.00 | 81 | 1012.0 |
| 20260506153026 | 61 | 234 | 4.3 | 9.6 | 0.00 | 0.00 | 0.00 | 81 | 1011.9 |
| 20260506151525 | 62 | 232 | 1.7 | 7.8 | 0.00 | 0.00 | 0.00 | 81 | 1012.2 |
| 20260506150023 | 63 | 164 | 1.7 | 7.0 | 0.00 | 0.00 | 0.00 | 79 | 1012.2 |
| 20260506144525 | 63 | 296 | 0.9 | 10.4 | 0.00 | 0.00 | 0.00 | 80 | 1012.2 |
| 20260506143031 | 62 | 291 | 3.5 | 9.6 | 0.00 | 0.00 | 0.00 | 80 | 1012.4 |
| 20260506141520 | 62 | 212 | 2.6 | 7.8 | 0.00 | 0.00 | 0.00 | 80 | 1012.7 |
| 20260506140019 | 61 | 257 | 4.3 | 13.0 | 0.00 | 0.00 | 0.00 | 82 | 1012.5 |
| 20260506134519 | 61 | 225 | 1.7 | 4.3 | 0.00 | 0.00 | 0.00 | 82 | 1012.4 |
| 20260506133017 | 61 | 210 | 2.6 | 7.0 | 0.00 | 0.00 | 0.00 | 81 | 1012.2 |
| 20260506131518 | 61 | 207 | 2.6 | 6.1 | 0.00 | 0.00 | 0.00 | 82 | 1012.1 |
| 20260506130016 | 62 | 243 | 3.5 | 10.4 | 0.00 | 0.00 | 0.00 | 81 | 1012.5 |
| 20260506124512 | 61 | 203 | 2.6 | 7.8 | 0.00 | 0.00 | 0.00 | 83 | 1012.6 |
| 20260506123010 | 60 | 282 | 3.5 | 7.0 | 0.00 | 0.00 | 0.00 | 84 | 1012.8 |
| 20260506121508 | 59 | 254 | 2.6 | 7.0 | 0.00 | 0.00 | 0.00 | 85 | 1012.7 |
| 20260506120006 | 59 | 203 | 3.5 | 6.1 | 0.00 | 0.00 | 0.00 | 85 | 1012.8 |
| 20260506114505 | 59 | 215 | 1.7 | 6.1 | 0.00 | 0.00 | 0.00 | 86 | 1012.9 |
| 20260506113008 | 58 | 296 | 0.9 | 7.0 | 0.00 | 0.00 | 0.00 | 87 | 1012.7 |
| 20260506111504 | 58 | 284 | 0.9 | 4.3 | 0.00 | 0.00 | 0.00 | 87 | 1012.7 |
| 20260506110003 | 57 | 245 | 0.9 | 8.7 | 0.00 | 0.00 | 0.00 | 88 | 1012.8 |
| 20260506104501 | 0 | 0.0 | 0.0 | 0.00 | 0.00 | 0.00 | 1012.8 | ||
| 20260506103057 | 0 | 0.0 | 0.0 | 0.00 | 0.00 | 0.00 | 1012.8 | ||
| 20260506101553 | 0 | 0.0 | 0.0 | 0.00 | 0.00 | 0.00 | 1012.7 | ||
| 20260506100048 | 0 | 0.0 | 0.0 | 0.00 | 0.00 | 0.00 | 1012.6 | ||
| 20260506094547 | 0 | 0.0 | 0.0 | 0.00 | 0.00 | 0.00 | 1012.4 | ||
| 20260506093046 | 0 | 0.0 | 0.0 | 0.00 | 0.00 | 0.00 | 1012.6 | ||
| 20260506091535 | 56 | 272 | 1.7 | 7.0 | 0.00 | 0.00 | 0.00 | 87 | 1012.6 |
| 20260506090033 | 57 | 212 | 0.9 | 5.2 | 0.00 | 0.00 | 0.00 | 87 | 1012.9 |
| 20260506084533 | 57 | 210 | 2.6 | 7.8 | 0.00 | 0.00 | 0.00 | 87 | 1012.9 |
| 20260506083034 | 57 | 156 | 2.6 | 9.6 | 0.00 | 0.00 | 0.00 | 87 | 1012.9 |
| 20260506081529 | 57 | 228 | 0.9 | 4.3 | 0.00 | 0.00 | 0.00 | 87 | 1012.9 |
| 20260506073025 | 57 | 205 | 2.6 | 8.7 | 0.00 | 0.00 | 0.00 | 86 | 1013.1 |
| 20260506071525 | 58 | 207 | 4.3 | 9.6 | 0.00 | 0.00 | 0.00 | 86 | 1013.0 |
| 20260506061524 | 58 | 274 | 1.7 | 6.1 | 0.00 | 0.00 | 0.00 | 85 | 1013.0 |
| 20260506044503 | 58 | 291 | 2.6 | 9.6 | 0.00 | 0.00 | 0.00 | 83 | 1013.6 |
| 20260506043006 | 58 | 239 | 2.6 | 6.1 | 0.00 | 0.00 | 0.00 | 83 | 1013.6 |
| 20260506041502 | 58 | 34 | 3.5 | 8.7 | 0.00 | 0.00 | 0.00 | 83 | 1013.6 |
| 20260506040100 | 58 | 253 | 2.6 | 12.2 | 0.00 | 0.00 | 0.00 | 83 | 1013.5 |
| 20260506034558 | 58 | 169 | 3.5 | 8.7 | 0.00 | 0.00 | 0.00 | 83 | 1013.3 |
| 20260506033056 | 58 | 221 | 5.2 | 13.0 | 0.00 | 0.00 | 0.00 | 83 | 1013.4 |
| 20260506031602 | 58 | 228 | 3.5 | 9.6 | 0.00 | 0.00 | 0.00 | 82 | 1013.3 |
| 20260506030112 | 58 | 250 | 1.7 | 7.8 | 0.00 | 0.00 | 0.00 | 81 | 1013.3 |
| 20260506024555 | 59 | 260 | 3.5 | 10.4 | 0.00 | 0.00 | 0.00 | 80 | 1013.3 |
| 20260506023053 | 59 | 293 | 2.6 | 9.6 | 0.00 | 0.00 | 0.00 | 80 | 1013.1 |
| 20260506021553 | 59 | 218 | 3.5 | 7.8 | 0.00 | 0.00 | 0.00 | 80 | 1013.0 |
| 20260506020053 | 59 | 242 | 2.6 | 7.0 | 0.00 | 0.00 | 0.00 | 79 | 1013.0 |
| 20260506014559 | 59 | 259 | 2.6 | 9.6 | 0.00 | 0.00 | 0.00 | 79 | 1012.8 |
| 20260506013052 | 59 | 243 | 2.6 | 9.6 | 0.00 | 0.00 | 0.00 | 79 | 1012.7 |
| 20260506011557 | 59 | 300 | 3.5 | 8.7 | 0.00 | 0.00 | 0.00 | 79 | 1012.6 |
| 20260506010055 | 59 | 304 | 0.9 | 7.8 | 0.00 | 0.00 | 0.00 | 79 | 1012.5 |
| 20260506004623 | 59 | 291 | 2.6 | 8.7 | 0.00 | 0.00 | 0.00 | 78 | 1012.3 |
| 20260506003051 | 60 | 333 | 2.6 | 11.3 | 0.00 | 0.00 | 0.00 | 77 | 1012.0 |
| 20260506001550 | 60 | 302 | 1.7 | 11.3 | 0.00 | 0.00 | 0.00 | 77 | 1011.4 |
| 20260506000050 | 59 | 224 | 4.3 | 9.6 | 0.00 | 0.00 | 0.00 | 78 | 1011.2 |
| 20260505234610 | 59 | 290 | 2.6 | 5.2 | 0.00 | 0.00 | 0.00 | 78 | 1011.0 |
| 20260505233048 | 60 | 232 | 2.6 | 7.8 | 0.00 | 0.00 | 0.00 | 77 | 1010.8 |
| 20260505231550 | 61 | 219 | 4.3 | 11.3 | 0.00 | 0.00 | 0.00 | 75 | 1010.8 |
| 20260505230051 | 61 | 195 | 2.6 | 7.8 | 0.00 | 0.00 | 0.00 | 75 | 1011.2 |
| 20260505224548 | 61 | 262 | 2.6 | 12.2 | 0.00 | 0.00 | 0.00 | 74 | 1011.1 |
| 20260505223059 | 61 | 150 | 1.7 | 8.7 | 0.00 | 0.00 | 0.00 | 75 | 1010.9 |
| 20260505221558 | 62 | 276 | 5.2 | 10.4 | 0.00 | 0.00 | 0.00 | 73 | 1010.8 |
| 20260505220100 | 63 | 250 | 3.5 | 8.7 | 0.00 | 0.00 | 0.00 | 72 | 1010.6 |
| 20260505214603 | 63 | 187 | 3.5 | 7.8 | 0.00 | 0.00 | 0.00 | 72 | 1010.5 |
| 20260505213048 | 64 | 183 | 1.7 | 8.7 | 0.00 | 0.00 | 0.00 | 71 | 1010.7 |
| 20260505211547 | 64 | 262 | 3.5 | 10.4 | 0.00 | 0.00 | 0.00 | 71 | 1010.6 |
| 20260505210046 | 65 | 204 | 5.2 | 11.3 | 0.00 | 0.00 | 0.00 | 68 | 1010.5 |
| 20260505204544 | 66 | 228 | 2.6 | 9.6 | 0.00 | 0.00 | 0.00 | 68 | 1010.4 |
| 20260505203044 | 66 | 246 | 3.5 | 8.7 | 0.00 | 0.00 | 0.00 | 68 | 1010.4 |
| 20260505201542 | 65 | 266 | 2.6 | 7.0 | 0.00 | 0.00 | 0.00 | 70 | 1010.5 |
| 20260505200045 | 65 | 202 | 4.3 | 9.6 | 0.00 | 0.00 | 0.00 | 70 | 1010.7 |
| 20260505194538 | 64 | 215 | 3.5 | 8.7 | 0.00 | 0.00 | 0.00 | 72 | 1010.9 |
| 20260505193035 | 65 | 259 | 4.3 | 8.7 | 0.00 | 0.00 | 0.00 | 71 | 1011.2 |